Weather History for King Salmon, AK

Change the Weather History Date:

Thursday, June 6, 2013

  Actual Average Record
Temperature  
Mean Temperature 52 °F 49 °F  
Max Temperature 65 °F 59 °F 73 °F (2004)
Min Temperature 38 °F 39 °F 31 °F (2006)
Degree Days  
Heating Degree Days 13 16  
Month to date heating degree days 79 98  
Since 1 June heating degree days 79 98  
Since 1 July heating degree days 11064 10567  
Cooling Degree Days 0    
Month to date cooling degree days 0  
Year to date cooling degree days 0  
Since 1 June cooling degree days 0  
Moisture  
Dew Point 34 °F    
Average Humidity 0    
Maximum Humidity 0    
Minimum Humidity 0    
Precipitation  
Precipitation 0.00 in 0.05 in 0.49 in (1968)
Month to date precipitation 0.04 0.30  
Year to date precipitation 6.40 5.00  
Snow  
Snow 0.00 in 0.00 in 0.00 in (2014)
Month to date snowfall 0.0 0.0  
Since 1 June snowfall 0.0 0.0  
Since 1 July snowfall 75.3 46.6  
Snow Depth 0.00 in    
Sea Level Pressure  
Sea Level Pressure 29.78 in    
Wind  
Wind Speed 10 mph (East)    
Max Wind Speed 30 mph    
Max Gust Speed 39 mph    
Visibility 10 miles    
Events      
T = Trace of Precipitation, MM = Missing Value Source: NWS Daily Summary

Daily Weather History Graph

Daily Weather History Graph

Search for Another Location

Airport:

Trip Planner

Search our weather history database for the weather conditions in past years. The results will help you decide how hot, cold, wet, or windy it might be!

Date:

Astronomy

Jun. 06, 2013 Rise Set
Actual Time 5:21 AM AKDT 11:29 PM AKDT
Civil Twilight 4:05 AM AKDT 12:46 AM AKDT
Nautical Twilight Sun does not rise Sun does not rise
Astronomical Twilight Sun does not rise Sun does not rise
Moon 4:40 AM AKDT (6/6) 9:38 PM AKDT (6/6)
Length of Visible Light 20h 40m
Length of Day
18h 08m
Waning Crescent, 3% of the Moon is Illuminated
Jun 6
Waning Crescent
Jun 8
New
Jun 16
First Quarter
Jun 23
Full
Jun 29
Last Quarter

Hourly Weather History & Observations

Time (AKDT) Temp. Windchill Dew Point Humidity Pressure Visibility Wind Dir Wind Speed Gust Speed Precip Events Conditions
12:54 AM 48.0 °F - 36.0 °F 63% 29.79 in 10.0 mi East 26.5 mph 36.8 mph N/A   Partly Cloudy
1:54 AM 46.9 °F - 36.0 °F 66% 29.79 in 10.0 mi East 23.0 mph 29.9 mph N/A   Clear
2:54 AM 46.0 °F 39.9 °F 36.0 °F 68% 29.80 in 10.0 mi East 13.8 mph 21.9 mph N/A   Clear
3:54 AM 45.0 °F 40.6 °F 36.0 °F 71% 29.79 in 10.0 mi East 8.1 mph - N/A   Clear
4:54 AM 39.9 °F 34.5 °F 35.1 °F 83% 29.79 in 10.0 mi NE 8.1 mph - N/A   Partly Cloudy
5:54 AM 39.9 °F 33.4 °F 34.0 °F 79% 29.78 in 10.0 mi ENE 10.4 mph - N/A   Partly Cloudy
6:54 AM 42.1 °F 36.1 °F 34.0 °F 73% 29.78 in 10.0 mi NNE 10.4 mph - N/A   Partly Cloudy
7:54 AM 48.0 °F - 36.0 °F 63% 29.79 in 10.0 mi NE 8.1 mph - N/A   Partly Cloudy
8:54 AM 53.1 °F - 35.1 °F 50% 29.79 in 10.0 mi ENE 11.5 mph - N/A   Partly Cloudy
9:54 AM 55.0 °F - 35.1 °F 47% 29.79 in 10.0 mi Variable 6.9 mph - N/A   Partly Cloudy
10:54 AM 57.0 °F - 35.1 °F 44% 29.78 in 10.0 mi East 11.5 mph 16.1 mph N/A   Partly Cloudy
11:54 AM 57.9 °F - 37.0 °F 46% 29.79 in 10.0 mi ENE 12.7 mph 20.7 mph N/A   Partly Cloudy
12:54 PM 61.0 °F - 36.0 °F 39% 29.79 in 10.0 mi ENE 13.8 mph - N/A   Partly Cloudy
1:54 PM 60.1 °F - 35.1 °F 39% 29.78 in 10.0 mi NE 12.7 mph 17.3 mph N/A   Partly Cloudy
2:54 PM 61.0 °F - 35.1 °F 38% 29.78 in 10.0 mi East 13.8 mph 20.7 mph N/A   Partly Cloudy
3:54 PM 63.0 °F - 35.1 °F 35% 29.78 in 10.0 mi ENE 11.5 mph - N/A   Partly Cloudy
4:54 PM 62.1 °F - 34.0 °F 35% 29.78 in 10.0 mi East 8.1 mph 17.3 mph N/A   Partly Cloudy
5:54 PM 64.0 °F - 30.9 °F 29% 29.77 in 10.0 mi East 15.0 mph - N/A   Partly Cloudy
6:54 PM 63.0 °F - 30.0 °F 29% 29.76 in 10.0 mi East 10.4 mph - N/A   Partly Cloudy
7:54 PM 63.0 °F - 30.0 °F 29% 29.77 in 10.0 mi East 6.9 mph - N/A   Partly Cloudy
8:54 PM 62.1 °F - 30.0 °F 30% 29.77 in 10.0 mi SSE 5.8 mph - N/A   Partly Cloudy
9:54 PM 61.0 °F - 30.0 °F 31% 29.78 in 10.0 mi South 4.6 mph - N/A   Partly Cloudy
10:54 PM 57.9 °F - 30.9 °F 36% 29.78 in 10.0 mi SSW 3.5 mph - N/A   Partly Cloudy
11:54 PM 53.1 °F - 33.1 °F 47% 29.80 in 10.0 mi WSW 3.5 mph - N/A   Scattered Clouds